Location: Red Deer
(52.2681°N, 113.8112°W)
Time: 11:13:02
(UTC-06:00)

NANOSAT C BR1 - Visible Passes

Search period start: 17 May 2022 00:00
Search period end: 27 May 2022 00:00
Orbit: 584 x 602 km, 98.0° (Epoch: 16 May)

Date Brightness Start Highest point End Pass type
(mag) Time Alt. Az. Time Alt. Az. Time Alt. Az.
17 May ? 02:59:42 10° NE 03:03:16 27° E 03:06:19 12° SSE visible
17 May ? 04:35:04 10° N 04:38:56 38° WNW 04:42:46 10° SW visible
18 May ? 03:08:32 10° NNE 03:12:18 32° E 03:15:27 13° SSE visible
18 May ? 04:44:08 10° N 04:47:51 32° WNW 04:51:32 10° SW visible
19 May ? 03:17:24 10° NNE 03:21:19 39° E 03:24:34 14° SSE visible
20 May ? 03:26:16 10° NNE 03:30:19 47° E 03:33:41 14° S visible
21 May ? 03:35:11 10° NNE 03:39:18 58° ESE 03:42:47 14° S visible
22 May ? 03:44:06 10° NNE 03:48:16 71° ESE 03:51:53 13° S visible
23 May ? 02:19:44 10° ENE 02:20:58 11° E 02:22:13 10° ESE visible
23 May ? 03:53:02 10° NNE 03:57:12 86° ESE 04:00:58 12° SSW visible
24 May ? 02:27:55 10° ENE 02:30:01 14° E 02:32:07 10° ESE visible
24 May ? 04:01:58 10° NNE 04:06:08 79° WNW 04:10:03 11° SSW visible
25 May ? 02:36:24 10° NE 02:39:03 16° E 02:41:41 10° SE visible
25 May ? 04:10:56 10° N 04:15:03 65° WNW 04:19:08 10° SSW visible
26 May ? 02:45:02 10° NE 02:48:04 19° E 02:51:06 10° SE visible
26 May ? 04:19:53 10° N 04:23:56 53° WNW 04:27:58 10° SW visible
